Time,TemperatureF,DewpointF,PressureIn,WindDirection,WindDirectionDegrees,WindSpeedMPH,WindSpeedGustMPH,Humidity,HourlyPrecipIn,Conditions,Clouds,dailyrainin,SoftwareType,DateUTC
2013-03-20 00:05:00,25.3,24.0,29.62,NNE,16,0.0,0.0,93,0.00,,,0.00,vanprod,2013-03-20 04:05:00,
2013-03-20 00:15:00,25.1,23.0,29.62,NNE,16,0.0,0.0,93,0.00,,,0.00,vanprod,2013-03-20 04:15:00,
2013-03-20 00:25:00,25.0,23.0,29.62,NNE,17,0.0,0.0,93,0.00,,,0.00,vanprod,2013-03-20 04:25:00,
2013-03-20 00:35:00,25.0,23.0,29.62,NNE,16,0.0,0.0,93,0.00,,,0.00,vanprod,2013-03-20 04:35:00,
2013-03-20 00:45:00,24.8,23.0,29.62,NNE,16,0.0,0.0,92,0.00,,,0.00,vanprod,2013-03-20 04:45:00,
2013-03-20 00:55:00,25.0,23.0,29.62,NNE,14,0.0,0.0,92,0.00,,,0.00,vanprod,2013-03-20 04:55:00,
2013-03-20 01:05:00,24.8,23.0,29.62,NNE,16,0.0,0.0,92,0.00,,,0.00,vanprod,2013-03-20 05:05:00,
2013-03-20 01:15:00,24.8,23.0,29.62,NNE,16,0.0,0.0,92,0.00,,,0.00,vanprod,2013-03-20 05:15:00,
2013-03-20 01:25:00,24.5,22.0,29.62,NNE,16,0.0,0.0,92,0.00,,,0.00,vanprod,2013-03-20 05:25:00,
2013-03-20 01:35:00,24.4,22.0,29.62,NNE,14,0.0,0.0,92,0.00,,,0.00,vanprod,2013-03-20 05:35:00,
2013-03-20 01:45:00,24.2,22.0,29.63,NNE,16,0.0,0.0,92,0.00,,,0.00,vanprod,2013-03-20 05:45:00,
2013-03-20 01:55:00,24.2,22.0,29.63,NNE,16,0.0,0.0,92,0.00,,,0.00,vanprod,2013-03-20 05:55:00,
2013-03-20 02:05:00,24.1,22.0,29.62,NNE,16,0.0,0.0,92,0.00,,,0.00,vanprod,2013-03-20 06:05:00,
2013-03-20 02:15:00,24.1,22.0,29.62,NNE,14,0.0,0.0,91,0.00,,,0.00,vanprod,2013-03-20 06:15:00,
2013-03-20 02:25:00,23.8,22.0,29.62,NNE,16,0.0,0.0,92,0.00,,,0.00,vanprod,2013-03-20 06:25:00,
2013-03-20 02:35:00,23.6,22.0,29.62,NNE,16,0.0,0.0,92,0.00,,,0.00,vanprod,2013-03-20 06:35:00,
2013-03-20 02:45:00,23.6,22.0,29.62,NNE,16,0.0,0.0,92,0.00,,,0.00,vanprod,2013-03-20 06:45:00,
2013-03-20 02:55:00,23.6,22.0,29.62,NNE,16,0.0,0.0,92,0.00,,,0.00,vanprod,2013-03-20 06:55:00,
2013-03-20 03:05:00,23.6,22.0,29.62,NNE,16,0.0,0.0,92,0.00,,,0.00,vanprod,2013-03-20 07:05:00,
2013-03-20 03:15:00,23.6,22.0,29.62,NNE,14,0.0,0.0,92,0.00,,,0.00,vanprod,2013-03-20 07:15:00,
2013-03-20 03:25:00,23.6,22.0,29.62,NNE,16,0.0,0.0,92,0.00,,,0.00,vanprod,2013-03-20 07:25:00,
2013-03-20 03:35:00,23.6,22.0,29.61,NNE,16,0.0,0.0,92,0.00,,,0.00,vanprod,2013-03-20 07:35:00,
2013-03-20 03:45:00,23.6,22.0,29.62,NNE,16,0.0,0.0,93,0.00,,,0.00,vanprod,2013-03-20 07:45:00,
2013-03-20 03:55:00,23.8,22.0,29.62,NNE,16,0.0,0.0,93,0.00,,,0.00,vanprod,2013-03-20 07:55:00,
2013-03-20 04:05:00,23.9,22.0,29.62,NNE,14,0.0,0.0,93,0.00,,,0.00,vanprod,2013-03-20 08:05:00,
2013-03-20 04:15:00,23.9,22.0,29.62,NNE,16,0.0,0.0,93,0.00,,,0.00,vanprod,2013-03-20 08:15:00,
2013-03-20 04:25:00,24.1,22.0,29.62,NNE,16,0.0,0.0,93,0.00,,,0.00,vanprod,2013-03-20 08:25:00,
2013-03-20 04:35:00,24.1,22.0,29.62,NNE,16,0.0,0.0,93,0.00,,,0.00,vanprod,2013-03-20 08:35:00,
2013-03-20 04:45:00,24.2,22.0,29.62,NNE,16,0.0,0.0,93,0.00,,,0.00,vanprod,2013-03-20 08:45:00,
2013-03-20 04:55:00,24.2,22.0,29.62,NNE,16,0.0,0.0,93,0.00,,,0.00,vanprod,2013-03-20 08:55:00,
2013-03-20 05:05:00,24.4,23.0,29.62,NNE,16,0.0,0.0,93,0.00,,,0.00,vanprod,2013-03-20 09:05:00,
2013-03-20 05:15:00,24.5,23.0,29.62,NNE,16,0.0,0.0,93,0.00,,,0.00,vanprod,2013-03-20 09:15:00,
2013-03-20 05:25:00,24.5,23.0,29.62,NNE,16,0.0,0.0,93,0.00,,,0.00,vanprod,2013-03-20 09:25:00,
2013-03-20 05:35:00,24.7,23.0,29.62,NNE,16,0.0,0.0,93,0.00,,,0.00,vanprod,2013-03-20 09:35:00,
2013-03-20 05:45:00,24.8,23.0,29.62,NNE,16,0.0,0.0,94,0.00,,,0.00,vanprod,2013-03-20 09:45:00,
2013-03-20 05:55:00,25.0,23.0,29.62,NNE,16,0.0,0.0,94,0.00,,,0.00,vanprod,2013-03-20 09:55:00,
2013-03-20 06:05:00,25.0,23.0,29.62,NNE,14,0.0,0.0,94,0.00,,,0.00,vanprod,2013-03-20 10:05:00,
2013-03-20 06:15:00,25.1,24.0,29.62,NNE,16,0.0,0.0,94,0.00,,,0.00,vanprod,2013-03-20 10:15:00,
2013-03-20 06:25:00,25.1,24.0,29.62,NNE,16,0.0,0.0,94,0.00,,,0.00,vanprod,2013-03-20 10:25:00,
2013-03-20 06:35:00,25.3,24.0,29.62,NNE,16,0.0,0.0,94,0.00,,,0.00,vanprod,2013-03-20 10:35:00,
2013-03-20 06:45:00,25.4,24.0,29.62,NNE,16,0.0,0.0,94,0.00,,,0.00,vanprod,2013-03-20 10:45:00,
2013-03-20 06:55:00,25.4,24.0,29.62,NNE,16,0.0,0.0,94,0.00,,,0.00,vanprod,2013-03-20 10:55:00,
2013-03-20 07:05:00,25.6,24.0,29.62,NNE,17,0.0,0.0,94,0.00,,,0.00,vanprod,2013-03-20 11:05:00,
2013-03-20 07:15:00,25.6,24.0,29.62,NNE,16,0.0,0.0,94,0.00,,,0.00,vanprod,2013-03-20 11:15:00,
2013-03-20 07:25:00,25.7,24.0,29.62,NNE,16,0.0,0.0,94,0.00,,,0.00,vanprod,2013-03-20 11:25:00,
2013-03-20 07:35:00,25.8,24.0,29.62,NNE,16,0.0,0.0,94,0.00,,,0.00,vanprod,2013-03-20 11:35:00,
2013-03-20 07:45:00,26.0,24.0,29.62,NNE,16,0.0,0.0,94,0.00,,,0.00,vanprod,2013-03-20 11:45:00,
2013-03-20 07:55:00,26.1,25.0,29.62,NNE,16,0.0,0.0,94,0.00,,,0.00,vanprod,2013-03-20 11:55:00,
2013-03-20 08:05:00,26.3,25.0,29.62,NNE,16,0.0,0.0,94,0.00,,,0.00,vanprod,2013-03-20 12:05:00,
2013-03-20 08:15:00,26.6,25.0,29.62,NNE,13,0.0,0.0,94,0.00,,,0.00,vanprod,2013-03-20 12:15:00,
2013-03-20 08:25:00,26.9,25.0,29.62,NNE,16,0.0,0.0,94,0.00,,,0.00,vanprod,2013-03-20 12:25:00,
2013-03-20 08:35:00,27.0,25.0,29.62,NNE,16,0.0,0.0,93,0.00,,,0.00,vanprod,2013-03-20 12:35:00,
2013-03-20 08:45:00,27.2,25.0,29.62,NNE,16,0.0,0.0,93,0.00,,,0.00,vanprod,2013-03-20 12:45:00,
2013-03-20 08:55:00,27.5,26.0,29.62,NNE,16,0.0,0.0,93,0.00,,,0.00,vanprod,2013-03-20 12:55:00,
2013-03-20 09:05:00,27.9,26.0,29.62,NNE,16,0.0,0.0,92,0.00,,,0.00,vanprod,2013-03-20 13:05:00,
2013-03-20 09:15:00,27.8,26.0,29.62,NNE,17,0.0,0.0,92,0.00,,,0.00,vanprod,2013-03-20 13:15:00,
2013-03-20 09:25:00,27.6,26.0,29.62,NNE,14,0.0,0.0,92,0.00,,,0.00,vanprod,2013-03-20 13:25:00,
2013-03-20 09:35:00,27.8,25.0,29.61,North,10,0.0,0.0,91,0.00,,,0.00,vanprod,2013-03-20 13:35:00,
2013-03-20 09:45:00,27.9,25.0,29.61,WSW,237,0.0,0.0,90,0.00,,,0.00,vanprod,2013-03-20 13:45:00,
2013-03-20 09:55:00,28.4,26.0,29.61,West,278,0.0,0.0,90,0.00,,,0.00,vanprod,2013-03-20 13:55:00,
2013-03-20 10:05:00,28.5,26.0,29.61,WSW,240,0.0,0.0,89,0.00,,,0.00,vanprod,2013-03-20 14:05:00,
2013-03-20 10:15:00,29.1,26.0,29.61,South,189,0.0,0.0,90,0.00,,,0.00,vanprod,2013-03-20 14:15:00,
2013-03-20 10:25:00,29.5,27.0,29.61,WSW,258,0.0,0.0,89,0.00,,,0.00,vanprod,2013-03-20 14:25:00,
2013-03-20 10:35:00,29.8,27.0,29.61,WNW,292,0.0,0.0,88,0.00,,,0.00,vanprod,2013-03-20 14:35:00,
2013-03-20 10:45:00,30.7,28.0,29.61,SW,233,0.0,0.0,89,0.00,,,0.00,vanprod,2013-03-20 14:45:00,
2013-03-20 10:55:00,30.9,27.0,29.61,NW,315,0.0,0.0,87,0.00,,,0.00,vanprod,2013-03-20 14:55:00,
2013-03-20 11:05:00,30.7,27.0,29.61,ESE,103,0.0,0.0,85,0.00,,,0.00,vanprod,2013-03-20 15:05:00,
2013-03-20 11:15:00,31.0,27.0,29.62,West,280,0.0,0.0,84,0.00,,,0.00,vanprod,2013-03-20 15:15:00,
2013-03-20 11:25:00,31.3,27.0,29.62,SW,233,0.0,0.0,84,0.00,,,0.00,vanprod,2013-03-20 15:25:00,
2013-03-20 11:35:00,31.9,28.0,29.62,West,281,0.0,0.0,84,0.00,,,0.00,vanprod,2013-03-20 15:35:00,
2013-03-20 11:45:00,32.1,27.0,29.62,SSW,198,0.0,0.0,80,0.00,,,0.00,vanprod,2013-03-20 15:45:00,
2013-03-20 11:55:00,32.1,27.0,29.62,WSW,246,0.0,0.0,82,0.00,,,0.00,vanprod,2013-03-20 15:55:00,
2013-03-20 12:05:00,32.4,28.0,29.62,WSW,248,0.0,0.0,82,0.00,,,0.00,vanprod,2013-03-20 16:05:00,
2013-03-20 12:15:00,32.8,28.0,29.62,SW,222,0.0,0.0,82,0.00,,,0.00,vanprod,2013-03-20 16:15:00,
2013-03-20 12:25:00,32.9,28.0,29.62,SW,234,0.0,0.0,81,0.00,,,0.00,vanprod,2013-03-20 16:25:00,
2013-03-20 12:35:00,33.2,28.0,29.62,West,260,0.0,0.0,81,0.00,,,0.00,vanprod,2013-03-20 16:35:00,
2013-03-20 12:45:00,33.1,28.0,29.62,WNW,285,0.0,0.0,81,0.00,,,0.00,vanprod,2013-03-20 16:45:00,
2013-03-20 12:55:00,32.7,27.0,29.62,SW,232,0.0,0.0,80,0.00,,,0.00,vanprod,2013-03-20 16:55:00,
2013-03-20 13:05:00,32.5,26.0,29.62,SW,220,0.0,0.0,77,0.00,,,0.00,vanprod,2013-03-20 17:05:00,
2013-03-20 13:15:00,32.5,27.0,29.62,SW,236,0.0,0.0,81,0.00,,,0.00,vanprod,2013-03-20 17:15:00,
2013-03-20 13:25:00,32.4,26.0,29.62,WNW,282,0.0,0.0,76,0.00,,,0.01,vanprod,2013-03-20 17:25:00,
2013-03-20 13:35:00,32.2,25.0,29.63,NW,312,0.0,0.0,74,0.00,,,0.01,vanprod,2013-03-20 17:35:00,
2013-03-20 13:45:00,32.4,26.0,29.63,WSW,241,0.0,0.0,77,0.00,,,0.01,vanprod,2013-03-20 17:45:00,
2013-03-20 13:55:00,32.9,27.0,29.63,SW,233,0.0,0.0,80,0.00,,,0.01,vanprod,2013-03-20 17:55:00,
2013-03-20 14:05:00,33.1,27.0,29.62,West,265,0.0,0.0,78,0.00,,,0.01,vanprod,2013-03-20 18:05:00,
2013-03-20 14:15:00,32.9,27.0,29.62,SW,230,0.0,0.0,77,0.00,,,0.01,vanprod,2013-03-20 18:15:00,
2013-03-20 14:25:00,32.9,27.0,29.62,WSW,239,0.0,0.0,80,0.00,,,0.01,vanprod,2013-03-20 18:25:00,
2013-03-20 14:35:00,33.2,28.0,29.62,West,270,0.0,1.0,82,0.00,,,0.01,vanprod,2013-03-20 18:35:00,
2013-03-20 14:45:00,34.1,29.0,29.61,SSW,202,1.0,3.0,80,0.00,,,0.01,vanprod,2013-03-20 18:45:00,
2013-03-20 14:55:00,34.6,29.0,29.61,WSW,247,2.0,2.0,80,0.00,,,0.01,vanprod,2013-03-20 18:55:00,
2013-03-20 15:05:00,34.9,28.0,29.61,SW,224,3.0,3.0,77,0.00,,,0.01,vanprod,2013-03-20 19:05:00,
2013-03-20 15:15:00,34.7,28.0,29.61,SSW,213,3.0,3.0,77,0.00,,,0.01,vanprod,2013-03-20 19:15:00,
2013-03-20 15:25:00,34.9,28.0,29.61,WSW,256,2.0,2.0,76,0.00,,,0.01,vanprod,2013-03-20 19:25:00,
2013-03-20 15:35:00,35.0,28.0,29.61,SW,226,2.0,2.0,76,0.00,,,0.01,vanprod,2013-03-20 19:35:00,
2013-03-20 15:45:00,35.3,26.0,29.61,SSE,152,3.0,5.0,69,0.00,,,0.02,vanprod,2013-03-20 19:45:00,
2013-03-20 15:55:00,35.0,26.0,29.61,SW,232,4.0,4.0,70,0.00,,,0.02,vanprod,2013-03-20 19:55:00,
2013-03-20 16:05:00,34.7,27.0,29.61,SW,219,3.0,3.0,73,0.00,,,0.02,vanprod,2013-03-20 20:05:00,
2013-03-20 16:15:00,34.3,27.0,29.62,SSW,209,5.0,5.0,75,0.00,,,0.02,vanprod,2013-03-20 20:15:00,
2013-03-20 16:25:00,34.1,26.0,29.62,WSW,250,4.0,4.0,71,0.00,,,0.02,vanprod,2013-03-20 20:25:00,
2013-03-20 16:35:00,34.1,26.0,29.62,WSW,247,3.0,3.0,73,0.00,,,0.02,vanprod,2013-03-20 20:35:00,
2013-03-20 16:45:00,34.6,26.0,29.62,WSW,254,3.0,3.0,71,0.00,,,0.03,vanprod,2013-03-20 20:45:00,
2013-03-20 16:55:00,34.7,26.0,29.62,WSW,243,3.0,3.0,71,0.00,,,0.03,vanprod,2013-03-20 20:55:00,
2013-03-20 17:05:00,34.6,26.0,29.62,SSW,205,3.0,3.0,69,0.00,,,0.03,vanprod,2013-03-20 21:05:00,
2013-03-20 17:15:00,34.9,26.0,29.62,WNW,301,4.0,4.0,69,0.00,,,0.03,vanprod,2013-03-20 21:15:00,
2013-03-20 17:25:00,34.9,27.0,29.62,WSW,239,3.0,3.0,72,0.00,,,0.03,vanprod,2013-03-20 21:25:00,
2013-03-20 17:35:00,34.6,26.0,29.62,WSW,254,3.0,3.0,70,0.00,,,0.03,vanprod,2013-03-20 21:35:00,
2013-03-20 17:45:00,34.4,25.0,29.63,South,191,3.0,3.0,68,0.00,,,0.03,vanprod,2013-03-20 21:45:00,
2013-03-20 17:55:00,34.4,25.0,29.63,WSW,239,4.0,5.0,69,0.00,,,0.03,vanprod,2013-03-20 21:55:00,
2013-03-20 18:05:00,34.3,25.0,29.64,SW,215,4.0,0.0,69,0.00,,,0.03,vanprod,2013-03-20 22:05:00,
2013-03-20 18:15:00,34.1,26.0,29.64,West,272,2.0,2.0,71,0.00,,,0.03,vanprod,2013-03-20 22:15:00,
2013-03-20 18:25:00,33.7,25.0,29.64,South,188,2.0,2.0,70,0.00,,,0.03,vanprod,2013-03-20 22:25:00,
2013-03-20 18:35:00,33.4,25.0,29.64,SW,224,2.0,2.0,70,0.00,,,0.03,vanprod,2013-03-20 22:35:00,
2013-03-20 18:45:00,32.9,25.0,29.65,WSW,246,2.0,2.0,72,0.00,,,0.03,vanprod,2013-03-20 22:45:00,
2013-03-20 18:55:00,32.5,25.0,29.65,SW,217,2.0,2.0,73,0.00,,,0.03,vanprod,2013-03-20 22:55:00,
2013-03-20 19:05:00,32.1,24.0,29.65,SSW,213,2.0,2.0,73,0.00,,,0.03,vanprod,2013-03-20 23:05:00,
2013-03-20 19:15:00,31.5,25.0,29.66,SW,227,2.0,3.0,76,0.00,,,0.03,vanprod,2013-03-20 23:15:00,
2013-03-20 19:25:00,31.0,24.0,29.66,SSW,206,2.0,3.0,74,0.00,,,0.03,vanprod,2013-03-20 23:25:00,
2013-03-20 19:35:00,30.7,23.0,29.66,WSW,244,2.0,2.0,74,0.00,,,0.03,vanprod,2013-03-20 23:35:00,
2013-03-20 19:45:00,30.7,23.0,29.67,SW,215,2.0,2.0,74,0.00,,,0.03,vanprod,2013-03-20 23:45:00,
2013-03-20 19:55:00,30.3,23.0,29.67,WSW,244,2.0,2.0,74,0.00,,,0.03,vanprod,2013-03-20 23:55:00,
2013-03-20 20:05:00,30.0,23.0,29.67,West,260,2.0,2.0,76,0.00,,,0.03,vanprod,2013-03-21 00:05:00,
2013-03-20 20:15:00,29.8,23.0,29.68,SW,219,2.0,2.0,77,0.00,,,0.03,vanprod,2013-03-21 00:15:00,
2013-03-20 20:25:00,29.5,23.0,29.68,West,278,2.0,2.0,77,0.00,,,0.03,vanprod,2013-03-21 00:25:00,
2013-03-20 20:35:00,29.3,23.0,29.68,WSW,237,1.0,0.0,78,0.00,,,0.03,vanprod,2013-03-21 00:35:00,
2013-03-20 20:45:00,28.8,23.0,29.69,SW,234,0.0,0.0,78,0.00,,,0.03,vanprod,2013-03-21 00:45:00,
2013-03-20 20:55:00,28.5,23.0,29.69,WSW,253,0.0,0.0,79,0.00,,,0.03,vanprod,2013-03-21 00:55:00,
2013-03-20 21:05:00,28.1,23.0,29.69,WSW,253,0.0,0.0,80,0.00,,,0.03,vanprod,2013-03-21 01:05:00,
2013-03-20 21:15:00,27.8,23.0,29.69,WSW,251,0.0,0.0,81,0.00,,,0.03,vanprod,2013-03-21 01:15:00,
2013-03-20 21:25:00,27.5,23.0,29.69,WSW,250,0.0,0.0,83,0.00,,,0.03,vanprod,2013-03-21 01:25:00,
2013-03-20 21:35:00,27.0,23.0,29.68,WSW,253,1.0,1.0,83,0.00,,,0.03,vanprod,2013-03-21 01:35:00,
2013-03-20 21:45:00,26.9,22.0,29.69,SSE,148,1.0,2.0,83,0.00,,,0.03,vanprod,2013-03-21 01:45:00,
2013-03-20 21:55:00,26.6,22.0,29.69,SW,226,1.0,1.0,84,0.00,,,0.03,vanprod,2013-03-21 01:55:00,
2013-03-20 22:05:00,26.6,22.0,29.69,SW,222,1.0,2.0,84,0.00,,,0.03,vanprod,2013-03-21 02:05:00,
2013-03-20 22:15:00,26.4,22.0,29.69,SW,223,1.0,1.0,84,0.00,,,0.03,vanprod,2013-03-21 02:15:00,
2013-03-20 22:25:00,26.4,22.0,29.69,South,188,1.0,1.0,83,0.00,,,0.03,vanprod,2013-03-21 02:25:00,
2013-03-20 22:35:00,26.3,22.0,29.70,South,188,1.0,0.0,83,0.00,,,0.03,vanprod,2013-03-21 02:35:00,
2013-03-20 22:45:00,26.3,22.0,29.70,SW,230,1.0,2.0,83,0.00,,,0.03,vanprod,2013-03-21 02:45:00,
2013-03-20 22:55:00,26.1,22.0,29.70,SW,230,1.0,1.0,83,0.00,,,0.03,vanprod,2013-03-21 02:55:00,
2013-03-20 23:05:00,26.1,22.0,29.70,SSW,193,1.0,2.0,83,0.00,,,0.03,vanprod,2013-03-21 03:05:00,
2013-03-20 23:15:00,26.0,22.0,29.70,SW,236,1.0,2.0,83,0.00,,,0.03,vanprod,2013-03-21 03:15:00,
2013-03-20 23:25:00,26.0,22.0,29.70,SW,216,1.0,0.0,83,0.00,,,0.03,vanprod,2013-03-21 03:25:00,
2013-03-20 23:35:00,25.8,21.0,29.71,SW,234,1.0,1.0,83,0.00,,,0.03,vanprod,2013-03-21 03:35:00,
2013-03-20 23:45:00,25.7,22.0,29.70,WSW,240,1.0,1.0,84,0.00,,,0.03,vanprod,2013-03-21 03:45:00,
2013-03-20 23:55:00,25.6,21.0,29.70,SW,227,1.0,2.0,84,0.00,,,0.03,vanprod,2013-03-21 03:55:00,